Lid_Strength_Index
-1 -0 0 3 11 12 14 13 9 9 9 6 6 7 8 7 9 12 2 1 0 0 -0 -1 -2 -2 -1 -2 -1 -2 -2 -1 -2 -2 -2 -2 -2 -2 -2 -2 -2 -2 -2 -2 -1 -1 -1 -1 -1
-0 0 2 6 13 16 15 10 11 8 7 5 6 6 8 9 5 4 3 1 -0 -0 -0 -0 -1 -2 -2 -1 -2 -2 -2 -1 -2 -2 -2 -2 -2 -2 -2 -2 -1 -2 -2 -2 -1 -1 -1 -1 -1
0 1 7 10 13 15 14 10 8 7 6 6 7 5 6 8 4 3 1 0 0 0 -0 -0 -2 -2 -2 -2 -2 -2 -2 -2 -2 -2 -2 -2 -2 -2 -2 -1 -1 -1 -2 -2 -1 -1 -1 -1 -1
2 4 6 12 14 11 10 8 7 7 6 5 6 8 5 3 3 2 0 0 0 0 -0 -1 -2 -2 -2 -2 -2 -2 -2 -2 -2 -2 -2 -2 -2 -2 -1 -1 -1 -1 -1 -1 -1 -1 -1 -1 -1
2 6 12 13 11 9 7 7 6 8 7 6 6 8 7 3 1 1 1 0 1 0 -0 -0 -2 -2 -2 -2 -2 -2 -2 -2 -2 -2 -2 -2 -2 -2 -2 -2 -1 -1 -1 -1 -1 -1 -1 -1 -1
7 7 13 13 10 8 7 6 6 7 6 6 7 7 6 2 2 1 0 1 0 0 -0 -0 -1 -2 -2 -2 -1 -2 -2 -2 -2 -2 -2 -2 -2 -2 -2 -2 -1 -1 -1 -1 -1 -1 -1 -1 -1
8 10 12 11 9 9 8 5 7 7 7 7 5 8 6 4 2 1 1 1 1 0 -0 -0 -0 -1 -2 -2 -2 -2 -2 -2 -2 -2 -2 -2 -2 -2 -2 -2 -2 -1 -1 -1 -1 -1 -2 -2 -2
6 8 12 11 11 9 6 6 5 6 7 4 4 8 8 4 1 1 1 1 1 0 0 0 -0 -0 -0 -0 -2 -1 -1 -1 -2 -2 -2 -2 -1 -1 -2 -2 -2 -1 -1 -1 -1 -2 -2 -2 -2
4 10 13 11 9 8 6 7 5 4 6 5 4 5 3 2 1 2 2 2 1 1 0 0 0 0 0 0 -1 -1 -1 -2 -2 -1 -2 -2 -0 -0 -1 -1 -2 -1 -1 -2 -2 -2 -3 -2 -3
6 10 10 7 6 7 6 6 6 6 6 6 5 3 3 2 2 3 3 3 2 2 1 0 0 0 -0 -0 0 0 -0 0 0 -0 -0 -0 -0 -0 -1 -1 -1 -2 -1 -1 -2 -1 -3 -2 -0
6 9 7 6 5 5 6 6 5 7 8 6 7 5 4 3 3 3 3 3 2 2 1 1 0 -0 0 0 -0 -0 0 0 -0 -0 -0 -0 -1 -1 -0 -0 -1 -0 -2 0 -1 -1 -1 -0 -0
8 6 5 6 5 6 6 6 6 5 6 4 4 4 4 4 4 3 3 3 2 2 1 1 0 0 0 -0 -0 -0 0 -0 0 -0 0 0 0 0 -0 -0 -0 -0 0 1 -1 -0 0 0 0
7 6 5 5 5 5 5 6 6 6 4 4 3 4 4 4 4 3 2 2 2 2 1 1 0 0 0 0 0 0 0 -0 -0 -0 0 0 0 1 1 0 0 0 1 -0 -0 0 0 0 0
6 5 5 5 5 5 6 6 5 5 4 4 4 4 4 4 4 3 3 2 2 2 1 1 1 0 0 0 0 0 -0 0 0 -0 -0 -0 0 0 1 0 1 -0 -0 -0 0 0 0 0 0
6 8 7 6 6 6 5 8 8 5 4 5 5 4 4 4 3 3 3 2 2 2 1 1 1 0 0 0 0 0 0 1 1 0 -0 -0 -0 0 0 0 0 0 0 0 1 0 1 0 -0
8 9 11 7 6 6 7 11 7 4 5 6 5 5 4 4 3 3 2 2 2 1 1 1 0 0 0 0 0 0 1 0 0 0 -0 -0 -0 0 0 0 1 -0 1 0 0 0 1 1 1
11 12 11 9 6 6 8 11 6 5 5 6 6 5 5 4 4 3 2 2 2 1 1 1 1 1 1 0 0 0 0 0 0 0 0 0 -0 -1 0 0 1 0 0 1 1 1 1 2 2
13 12 10 10 8 7 8 9 7 6 6 6 6 5 5 5 4 3 2 2 1 1 1 1 1 1 1 0 1 0 0 0 0 -0 0 -1 -0 -0 0 0 1 0 1 1 1 1 1 1 2
10 10 10 9 6 9 10 9 8 7 6 6 6 5 5 5 3 3 2 2 2 2 2 1 2 1 1 1 2 2 2 1 1 0 0 0 -0 -0 0 0 0 0 1 1 1 1 2 2 1
10 10 10 9 6 9 9 10 7 7 7 6 6 6 5 5 4 3 3 2 2 2 2 2 2 1 1 1 1 1 1 1 1 0 0 0 -0 0 0 0 0 0 1 2 2 2 2 2 1
11 11 10 10 7 8 9 12 10 7 6 6 5 5 5 5 4 4 3 3 2 2 2 2 1 1 1 1 1 1 1 1 1 1 1 0 -0 -0 0 0 0 1 2 2 2 1 2 3 2
12 9 9 9 10 13 9 16 12 9 8 7 6 5 5 4 4 4 3 3 3 2 2 1 1 1 1 1 1 2 2 3 2 1 1 0 0 0 0 0 0 1 2 1 1 1 2 2 3
9 8 8 9 10 11 10 12 12 9 11 9 7 5 5 4 4 4 4 3 2 2 2 2 1 1 1 1 1 2 2 2 1 1 1 1 1 0 0 0 1 2 2 1 1 1 1 2 2
7 8 8 10 10 13 11 12 13 12 10 9 6 5 5 4 4 4 3 3 3 2 2 2 2 2 1 1 1 1 2 2 2 2 2 1 1 0 0 0 2 2 1 0 1 1 1 2 2
8 12 13 15 14 15 11 12 11 8 7 7 6 6 5 4 4 4 4 3 3 3 2 2 2 2 1 1 1 1 2 1 2 2 2 2 1 1 1 1 2 2 0 0 0 0 1 2 2
10 10 13 17 15 14 11 13 11 7 6 5 5 5 5 4 4 4 4 3 3 3 2 2 2 2 2 2 1 1 1 1 1 1 2 1 1 1 1 1 1 1 0 0 0 1 1 1 1
10 12 9 14 13 14 12 11 9 7 7 6 6 6 5 4 4 4 3 3 3 3 3 2 2 2 2 2 1 1 1 1 1 1 1 1 1 1 1 0 1 1 1 0 1 1 1 1 1
9 9 12 11 16 15 12 12 12 10 8 7 7 6 5 5 4 4 3 3 3 3 2 2 2 2 2 2 1 1 1 1 1 1 1 1 1 1 1 1 1 0 1 0 0 2 1 1 1
9 11 11 12 12 14 15 12 10 8 8 8 6 5 5 5 4 4 3 3 3 2 2 2 2 2 2 2 2 1 1 1 1 1 2 1 1 1 1 1 1 1 1 0 1 2 1 1 2
8 10 11 13 15 13 13 12 8 8 7 6 6 5 5 5 4 4 3 3 3 3 3 3 2 2 2 2 2 2 1 1 1 1 1 1 1 1 1 1 1 1 1 1 1 2 1 1 2